W9SDA Weather Reports


Display with metric or nautical units.
time (UTC)temp
F
wind
direction
speed
MPH
gust
MPH
rain 1hr
in
rain 24hr
in
rain mn
in
humidity
%
barometer
mb
20260906011605 80 0 0.0 0.0 0.00 0.00 0.00 87 1012.7
20260906010058 81 0 0.0 0.0 0.00 0.00 0.00 84 1012.5
20260906004606 81 0 0.0 0.0 0.00 0.00 0.00 81 1012.4
20260906003110 82 0 0.0 0.0 0.00 0.00 0.00 80 1012.4
20260906001603 83 0 0.0 0.0 0.00 0.00 0.00 80 1012.4
20260906000058 83 0 0.0 0.0 0.00 0.00 0.00 79 1012.5
20260905234558 83 0 0.0 3.0 0.00 0.00 0.00 78 1012.4
20260905233103 84 0 0.0 3.0 0.00 0.00 0.00 73 1012.4
20260905231602 84 0 0.0 4.0 0.00 0.00 0.00 71 1012.3
20260905230108 85 186 2.0 5.0 0.00 0.00 0.00 66 1012.6
20260905224614 89 323 2.0 8.0 0.00 0.00 0.00 65 1012.9
20260905223101 92 105 2.0 8.0 0.00 0.00 0.00 56 1012.5
20260905221616 96 45 1.0 5.0 0.00 0.00 0.00 51 1012.5
20260905220056 98 218 0.0 3.0 0.00 0.00 0.00 49 1012.5
20260905214603 99 89 1.0 9.0 0.00 0.00 0.00 49 1012.1
20260905213106 99 299 1.0 12.0 0.00 0.00 0.00 51 1012.0
20260905211603 99 346 0.0 5.0 0.00 0.00 0.00 48 1012.0
20260905210100 99 31 1.0 8.0 0.00 0.00 0.00 45 1012.4
20260905204603 98 351 1.0 5.0 0.00 0.00 0.00 49 1012.3
20260905203105 97 352 0.0 3.0 0.00 0.00 0.00 51 1012.5
20260905201623 99 349 3.0 10.0 0.00 0.00 0.00 48 1012.5
20260905200103 98 66 1.0 7.0 0.00 0.00 0.00 51 1012.8
20260905194556 98 19 2.0 5.0 0.00 0.00 0.00 48 1013.0
20260905193104 98 360 1.0 5.0 0.00 0.00 0.00 51 1013.0
20260905191559 99 243 1.0 9.0 0.00 0.00 0.00 44 1013.2
20260905184559 100 341 0.0 4.0 0.00 0.00 0.00 49 1013.4
20260905183052 99 143 2.0 6.0 0.00 0.00 0.00 49 1013.6
20260905181612 98 189 2.0 9.0 0.00 0.00 0.00 52 1013.9
20260905174602 96 5 2.0 7.0 0.00 0.00 0.00 54 1013.9
20260905173104 96 352 1.0 7.0 0.00 0.00 0.00 59 1014.0
20260905171602 94 97 1.0 6.0 0.00 0.00 0.00 61 1014.1
20260905170100 94 350 2.0 9.0 0.00 0.00 0.00 57 1014.4
20260905164554 93 35 3.0 9.0 0.00 0.00 0.00 61 1014.6
20260905163101 92 355 2.0 5.0 0.00 0.00 0.00 63 1014.8
20260905161604 91 5 2.0 8.0 0.00 0.00 0.00 63 1014.9
20260905160055 91 337 2.0 6.0 0.00 0.00 0.00 65 1015.0
20260905154619 90 5 3.0 7.0 0.00 0.00 0.00 65 1015.1
20260905153059 89 355 3.0 7.0 0.00 0.00 0.00 67 1015.1
20260905151603 88 23 1.0 8.0 0.00 0.00 0.00 68 1015.0
20260905150055 87 355 3.0 6.0 0.00 0.00 0.00 69 1015.0
20260905144600 86 32 2.0 8.0 0.00 0.00 0.00 72 1014.8
20260905143100 85 333 3.0 6.0 0.00 0.00 0.00 73 1014.8
20260905141600 85 5 2.0 5.0 0.00 0.00 0.00 74 1014.9
20260905140106 84 15 2.0 4.0 0.00 0.00 0.00 76 1014.9
20260905134601 82 15 2.0 4.0 0.00 0.00 0.00 81 1014.9
20260905133058 80 0 0.0 1.0 0.00 0.00 0.00 90 1014.8
20260905131606 77 0 0.0 1.0 0.00 0.00 0.00 93 1014.7
20260905130104 76 0 0.0 0.0 0.00 0.00 0.00 96 1014.7
20260905124604 74 0 0.0 2.0 0.00 0.00 0.00 96 1014.6
20260905123109 73 0 0.0 0.0 0.00 0.00 0.00 95 1014.5
20260905121603 72 0 0.0 1.0 0.00 0.00 0.00 94 1014.4
20260905114606 72 0 0.0 0.0 0.00 0.00 0.00 94 1014.0
20260905113100 72 0 0.0 0.0 0.00 0.00 0.00 94 1013.9
20260905111609 72 0 0.0 0.0 0.00 0.00 0.00 94 1013.8
20260905110100 72 0 0.0 0.0 0.00 0.00 0.00 93 1013.7
20260905104616 73 0 0.0 0.0 0.00 0.00 0.00 93 1013.7
20260905103100 73 0 0.0 0.0 0.00 0.00 0.00 92 1013.8
20260905101603 73 0 0.0 0.0 0.00 0.00 0.00 93 1013.8
20260905100100 73 0 0.0 0.0 0.00 0.00 0.00 92 1013.9
20260905094602 74 0 0.0 0.0 0.00 0.00 0.00 92 1013.8
20260905093104 74 0 0.0 0.0 0.00 0.00 0.00 92 1013.8
20260905091634 74 0 0.0 0.0 0.00 0.00 0.00 92 1013.8
20260905090057 74 0 0.0 0.0 0.00 0.00 0.00 91 1013.8
20260905084613 75 0 0.0 1.0 0.00 0.00 0.00 91 1013.9
20260905083100 75 0 0.0 0.0 0.00 0.00 0.00 91 1013.9
20260905081558 75 0 0.0 0.0 0.00 0.00 0.00 91 1013.9
20260905080109 75 0 0.0 0.0 0.00 0.00 0.00 91 1014.1
20260905074621 75 0 0.0 0.0 0.00 0.00 0.00 91 1014.1
20260905073058 75 0 0.0 0.0 0.00 0.00 0.00 91 1014.1
20260905071612 75 0 0.0 0.0 0.00 0.00 0.00 90 1014.2
20260905070112 75 0 0.0 0.0 0.00 0.00 0.00 90 1014.2
20260905064602 76 0 0.0 1.0 0.00 0.00 0.00 90 1014.2
20260905063102 76 0 0.0 2.0 0.00 0.00 0.00 90 1014.2
20260905061616 76 77 0.0 1.0 0.00 0.00 0.00 89 1014.3
20260905060059 76 0 0.0 1.0 0.00 0.00 0.00 90 1014.5
20260905054603 76 0 0.0 0.0 0.00 0.00 0.00 90 1014.4
20260905053056 77 0 0.0 2.0 0.00 0.00 0.00 88 1014.3
20260905051602 76 0 0.0 0.0 0.00 0.00 0.00 89 1014.3
20260905050100 76 0 0.0 0.0 0.00 0.00 0.00 90 1014.1
20260905044600 77 0 0.0 0.0 0.00 0.00 0.00 90 1014.1
20260905043055 77 0 0.0 0.0 0.00 0.00 0.00 90 1014.2
20260905041607 77 0 0.0 0.0 0.00 0.00 0.00 90 1014.1
20260905040103 78 0 0.0 0.0 0.00 0.00 0.00 89 1014.1
20260905034555 78 0 0.0 0.0 0.00 0.00 0.00 88 1014.1
20260905033111 78 31 0.0 0.0 0.00 0.00 0.00 88 1014.2
20260905031611 79 0 0.0 0.0 0.00 0.00 0.00 87 1014.4
20260905030055 79 0 0.0 0.0 0.00 0.00 0.00 86 1014.3
20260905024602 80 0 0.0 0.0 0.00 0.00 0.00 86 1014.3
20260905023104 80 0 0.0 0.0 0.00 0.00 0.00 85 1014.2
20260905021600 81 0 0.0 0.0 0.00 0.00 0.00 83 1014.1
20260905020058 81 0 0.0 0.0 0.00 0.00 0.00 82 1013.8
20260905014602 82 0 0.0 0.0 0.00 0.00 0.00 81 1013.7
20260905013101 83 0 0.0 0.0 0.00 0.00 0.00 79 1013.5